星链-2450 (STARLINK-2450 )

导读 | 星芒AI

STARLINK-2450 是 SpaceX Starlink 卫星互联网项目中的一颗低轨通信卫星。它属于第二代 Starlink 卫星,旨在提供更高速度、更低延迟的全球宽带服务。该卫星采用先进推进系统和激光通信技术,以提升网络效率和稳定性。STARLINK-2450 于近期成功发射,加入 Starlink 群体,为全球用户提供更优质的互联网接入服务,特别是在偏远和网络基础设施薄弱的地区。

基本信息
目录编号:
48113
目录名称:
STARLINK-2450
国际标识:
2021-027X
轨道中心:
EARTH
卫星名称:
星链-2450
卫星全名:
星链-2450 (STARLINK-2450 )
卫星状态:
在轨 (已飞行1716 天)
发射日期:
2021-04-07 UTC
国别 :
美国 (US)
星等 :
--
轨道信息
数据来源 国际轨道数据 AOE轨道数据
星历时间 2025-12-17T03:44:21+0800
1天前
查看轨道信息
2025-12-15T10:00:00+0800
3天前
查看轨道信息
半长轴 6925.341km 6925.37km
偏心率 0.0001487 0.0001203
轨道倾角 53.053° 53.052°
近地点辐角 91.795° 91.071°
升交点赤经 183.621° 191.431°
平近点角 268.321° 192.445°
近地点 546.176km 546.401km
远地点 548.236km 548.069km
周期 95.592分钟 95.593分钟
每日圈数 15.064026 15.063932
详细信息
固有亮度:
5
最大亮度:
2.5
卫星平台:
Starlink V1.0
覆盖范围:
全球
运营商:
太空探索技术公司
运营商所在国:
美国
制造商(研发单位):
太空探索技术公司
制造商所在国:
美国
使用方式:
暂无
卫星简介
星链(Starlink)计划是由太空探索技术公司(SpaceX)提出的一个巨型低轨卫星互联网星座项目,计划在2019年至2024年间在太空搭建由约1.2万颗卫星组成的“星链”网络,其中1584颗将部署在地球上空550千米处的近地轨道,并从2020年开始工作。该卫星仍在工作。
2D轨道图
3D轨道图
轨道高度分析图
轨道倾角分析图
轨道综合分析图
查看轨道综合分析图